User: anonymous   Login
Location: Marcé
(47.5801°N, 0.3280°W)
Time: 17:50:36
(UTC+02:00)
Language:

FENGYUN 1C DEB - Orbit

View from above orbital plane
View from above orbital plane
View from above satellite
View from above satellite

Ground track
Ground track

The orbit data is extracted from the following two-line orbital elements,

1 30966U 99025BBG 22183.80225875  .00010683  00000-0  12550-2 0  9995
2 30966  99.1136  23.7100 0065964 230.1759 195.1547 14.83556435480744
Epoch (UTC): 02 July 2022 19:15:15
Eccentricity: 0.0065964
inclination: 99.1136°
perigee height: 572 km
apogee height: 664 km
right ascension of ascending node: 23.7100°
argument of perigee: 230.1759°
revolutions per day: 14.83556435
mean anomaly at epoch: 195.1547°
orbit number at epoch: 48074

The dashed part of the orbit path shows where the satellite is in the earth's shadow,  

DLR